Location: Unspecified
(51.0000°N, 12.0000°E)
Time: 14:22:05
(UTC+01:00)

ISS - Visible Passes

Search period start: 14 December 2017 00:00
Search period end: 24 December 2017 00:00
Orbit: 403 x 406 km, 51.6° (Epoch: 15 December)

Date Brightness Start Highest point End Pass type
(mag) Time Alt. Az. Time Alt. Az. Time Alt. Az.
14 Dec -2.8 17:11:41 10° W 17:14:52 47° SSW 17:18:03 10° SE visible
14 Dec -0.7 18:49:30 10° WSW 18:50:44 12° SW 18:51:57 10° SSW visible
15 Dec -1.0 17:56:23 10° W 17:58:45 18° SW 18:01:07 10° S visible
16 Dec -1.6 17:03:50 10° W 17:06:42 28° SSW 17:09:33 10° SSE visible
18 Dec -0.6 16:56:18 10° WSW 16:58:23 16° SW 17:00:27 10° S visible
